Palm Springs, CA

10:24 PM PDT on June 22, 2018 (GMT -0700)
Palm Springs International

Weather History for KPSP - October, 2017

Change the Weather History Date:

Sunday, October 8, 2017

  Actual Average Record
Temperature  
Mean Temperature 82 °F 78 °F  
Max Temperature 97 °F 92 °F 109 °F (1996)
Min Temperature 66 °F 65 °F 46 °F (1941)
Degree Days  
Heating Degree Days 0 0  
Month to date heating degree days 0 0  
Since 1 July heating degree days 0 0  
Cooling Degree Days 17 13  
Month to date cooling degree days 127 117  
Year to date cooling degree days 4640 3843  
Growing Degree Days 33 (Base 50)    
Moisture  
Dew Point 34 °F    
Average Humidity 22    
Maximum Humidity 36    
Minimum Humidity 8    
Precipitation  
Precipitation 0.00 in 0.01 in 0.22 in (1945)
Month to date precipitation 0.00 0.07  
Year to date precipitation 7.17 3.96  
Sea Level Pressure  
Sea Level Pressure 29.63 in    
Wind  
Wind Speed 6 mph (SW)    
Max Wind Speed 21 mph    
Max Gust Speed 30 mph    
Visibility 10 miles    
Events      
T = Trace of Precipitation, MM = Missing Value Source: NWS Daily Summary

Daily Weather History Graph

Daily Weather History Graph

Search for Another Location

Airport or City:

Astronomy

Oct. 08, 2017 Rise Set
Actual Time 6:45 AM PDT 6:20 PM PDT
Civil Twilight 6:20 AM PDT 6:45 PM PDT
Nautical Twilight 5:51 AM PDT 7:14 PM PDT
Astronomical Twilight 5:23 AM PDT 7:43 PM PDT
Moon 8:52 PM PDT (10/8) 9:46 AM PDT (10/8)
Length of Visible Light 12h 24m
Length of Day
11h 34m
Waning Gibbous, 88% of the Moon is Illuminated
Oct 8
Waning Gibbous
Oct 12
Last Quarter
Oct 19
New
Oct 27
First Quarter
Nov 3
Full

Hourly Weather History & Observations

Time (PDT) Temp. Dew Point Humidity Pressure Visibility Wind Dir Wind Speed Gust Speed Precip Events Conditions
12:53 AM 73.9 °F 33.1 °F 22% 29.67 in 10.0 mi South 3.5 mph - N/A   Clear
1:53 AM 73.0 °F 33.1 °F 23% 29.67 in 10.0 mi Calm Calm - N/A   Clear
2:53 AM 69.1 °F 36.0 °F 30% 29.65 in 10.0 mi SW 5.8 mph - N/A   Clear
3:53 AM 71.1 °F 33.1 °F 25% 29.65 in 10.0 mi North 5.8 mph - N/A   Clear
4:53 AM 72.0 °F 32.0 °F 23% 29.64 in 10.0 mi West 3.5 mph - N/A   Clear
5:53 AM 70.0 °F 32.0 °F 25% 29.64 in 10.0 mi Calm Calm - N/A   Clear
6:53 AM 72.0 °F 28.9 °F 20% 29.65 in 10.0 mi WSW 4.6 mph - N/A   Clear
7:53 AM 72.0 °F 35.1 °F 26% 29.67 in 10.0 mi Calm Calm - N/A   Clear
8:53 AM 77.0 °F 37.9 °F 24% 29.68 in 10.0 mi Calm Calm - N/A   Clear
9:53 AM 82.0 °F 37.0 °F 20% 29.68 in 10.0 mi Calm Calm - N/A   Clear
10:53 AM 88.0 °F 30.0 °F 12% 29.66 in 10.0 mi SE 5.8 mph - N/A   Clear
11:53 AM 91.0 °F 26.1 °F 10% 29.65 in 10.0 mi SE 5.8 mph - N/A   Clear
12:53 PM 93.9 °F 33.1 °F 12% 29.63 in 10.0 mi SE 6.9 mph - N/A   Clear
1:53 PM 95.0 °F 24.1 °F 8% 29.60 in 10.0 mi ESE 8.1 mph - N/A   Clear
2:53 PM 96.1 °F 26.1 °F 8% 29.58 in 10.0 mi SE 6.9 mph - N/A   Clear
3:53 PM 97.0 °F 26.1 °F 8% 29.56 in 10.0 mi South 5.8 mph - N/A   Clear
4:53 PM 97.0 °F 26.1 °F 8% 29.56 in 10.0 mi Variable 5.8 mph - N/A   Clear
5:53 PM 91.9 °F 28.9 °F 11% 29.56 in 10.0 mi Calm Calm - N/A   Clear
6:53 PM 90.0 °F 33.1 °F 13% 29.57 in 10.0 mi NW 13.8 mph - N/A   Clear
7:53 PM 86.0 °F 41.0 °F 20% 29.58 in 10.0 mi NW 18.4 mph - N/A   Clear
8:53 PM 82.9 °F 44.1 °F 25% 29.59 in 10.0 mi NW 13.8 mph - N/A   Clear
9:53 PM 81.0 °F 43.0 °F 26% 29.60 in 10.0 mi NW 13.8 mph - N/A   Clear
10:53 PM 79.0 °F 48.0 °F 34% 29.63 in 10.0 mi NNW 6.9 mph - N/A   Clear
11:53 PM 75.0 °F 46.0 °F 36% 29.66 in 10.0 mi Calm Calm - N/A   Clear